星链-35170(STARLINK-35170)

导读

STARLINK-35170是美国SpaceX星链(Starlink)星座的一员,于2025年9月6日发射升空,属于第二代星链卫星组网批次。星链项目旨在构建全球低轨卫星互联网星座,为全球偏远地区、海洋航空等场景提供高速低延迟宽带服务。该卫星运行在近地轨道,采用成熟的平板设计与霍尔推进技术,寿命结束后会主动离轨,在大气层中焚毁,是SpaceX四万余颗卫星组网计划的组成部分,支撑星链全球覆盖与直接到手机的通信服务拓展。

Basic Information
目录编号:
65532
目录名称:
STARLINK-35170
国际标识:
2025-200N
轨道中心:
EARTH
卫星名称:
星链-35170
卫星全名:
星链-35170(STARLINK-35170)
卫星状态:
在轨 (已飞行280 天)
发射日期:
2025-09-06 UTC
国别 :
美国 (US)
星等 :
--
Orbit Information
数据来源 国际轨道数据 AOE轨道数据
星历时间 2026-06-13T12:27:44+0800
11小时前
查看轨道信息
2026-06-12T00:00:00+0800
1天前
查看轨道信息
半长轴 6927.628km 6927.653km
偏心率 0.0001712 0.0002194
轨道倾角 97.365° 97.377°
近地点辐角 93.172° 127.365°
升交点赤经 233.127° 231.680°
平近点角 266.970° 283.025°
近地点 548.304km 547.996km
远地点 550.678km 551.036km
周期 95.639分钟 95.640分钟
每日圈数 15.056568 15.056487
Detailed Information
固有亮度:
5
最大亮度:
2.5
卫星平台:
Starlink V1.0
覆盖范围:
全球
运营商:
太空探索技术公司
运营商所在国:
美国
制造商(研发单位):
太空探索技术公司
制造商所在国:
美国
使用方式:
暂无
Satellite Introduction
Starlink 计划是 SpaceX 推出的全球卫星互联网项目,通过发射低轨道卫星,为全球尤其是偏远地区提供高速、低延迟的互联网服务。自 2019 年起,Starlink 已部署数千颗卫星,旨在缩小全球数字鸿沟,推动互联网普及。该项目还为军事、航空等行业提供通信支持,带来广泛经济效益。
2D Orbit Map
3D Orbit Map
Orbit Altitude Analysis Chart
Orbit Inclination Analysis Chart
Orbit Comprehensive Analysis Chart
View Comprehensive Chart